Wind_Speed
76 76 77 77 77 77 77 78 78 79 80 81 82 83 84 86 88 90 91 91 92 92 92 93 94 95 95 95 94 93 92 92 93 95 96 99 103 104 103 103 104 104 106 106 105 105 106 106 106 105 103 100
77 77 77 77 77 77 78 78 78 79 79 80 81 82 84 86 88 89 90 91 92 92 92 93 94 96 96 96 95 94 94 94 93 93 94 95 99 103 103 103 106 108 108 108 108 108 109 110 109 108 107 105
77 77 77 77 77 77 78 78 79 79 79 80 80 82 83 85 86 88 89 89 90 91 92 93 94 95 96 96 96 95 95 95 95 94 94 94 95 98 101 102 105 110 111 111 112 111 112 112 112 111 110 109
78 77 77 77 77 77 77 78 78 78 78 79 79 81 82 83 84 85 86 87 88 89 91 92 93 94 94 94 94 94 93 95 95 94 94 95 95 94 97 100 102 108 113 114 114 115 114 115 115 114 113 112
77 77 76 76 76 76 76 77 77 77 77 78 79 80 81 81 82 83 84 85 87 88 89 91 92 94 94 93 92 92 92 93 94 95 95 95 96 95 94 97 100 105 112 116 117 117 117 117 118 118 116 115
76 75 75 74 74 74 74 74 74 75 75 76 77 78 79 80 81 82 83 84 85 87 88 90 92 93 93 93 92 91 91 92 93 95 96 95 96 96 95 95 98 102 108 115 118 118 118 120 121 121 119 118
73 72 71 71 71 70 70 69 69 70 71 72 74 75 76 77 78 80 81 83 85 86 88 90 91 93 93 93 91 90 89 90 92 94 96 97 96 97 97 95 96 100 104 111 118 120 119 121 123 124 123 121
68 67 67 66 65 64 63 62 63 64 66 68 69 71 73 75 76 78 80 82 84 86 87 89 90 92 92 92 91 89 87 88 90 92 95 97 97 97 98 97 95 98 103 108 115 120 121 121 124 125 126 124
63 62 62 60 59 57 57 57 58 61 63 65 67 69 72 74 76 78 80 82 84 86 87 88 89 90 91 91 90 88 86 85 87 90 94 97 98 97 98 98 96 97 101 106 111 117 121 121 123 126 128 127
58 57 55 53 52 52 53 55 57 59 62 64 67 69 72 75 77 79 81 83 85 86 87 88 89 89 89 89 89 88 85 83 84 86 90 95 98 99 99 99 98 97 99 103 109 115 120 122 123 126 128 129
53 51 49 49 50 51 54 56 58 61 63 66 68 71 73 76 78 80 82 84 86 87 87 88 88 87 87 87 86 85 83 81 81 82 86 91 96 99 99 100 100 98 98 101 106 112 118 121 122 124 128 130
46 46 46 48 50 53 55 58 60 63 65 67 70 72 74 77 79 81 83 84 86 87 88 87 87 86 86 85 84 82 81 79 78 78 81 86 92 97 99 100 101 100 98 99 103 109 115 120 121 123 127 130
43 45 47 50 52 55 57 59 62 64 67 69 71 74 75 77 79 81 83 84 86 87 88 88 87 86 85 84 83 82 80 77 75 75 77 82 88 94 98 100 101 101 100 99 101 106 112 118 121 122 126 129
44 46 49 52 55 57 59 62 64 66 69 70 72 74 76 78 79 81 83 85 86 87 88 88 87 86 85 84 84 82 80 77 74 73 74 77 83 90 95 98 101 102 101 100 100 103 108 114 119 122 124 128
47 50 52 55 57 60 62 64 66 68 69 71 73 75 76 78 79 81 83 85 86 88 89 89 88 87 86 84 84 82 80 77 73 72 72 74 79 86 93 96 99 102 103 101 100 101 105 110 117 121 123 126
51 53 56 58 60 62 63 65 67 68 70 72 73 75 76 77 78 80 82 85 87 88 90 90 89 88 86 84 83 82 80 77 73 71 71 72 75 82 89 93 97 100 103 103 101 101 103 108 113 119 122 125
54 56 58 60 61 63 65 66 68 69 70 72 73 74 76 76 77 79 82 85 88 89 90 90 89 87 85 83 82 81 80 78 74 71 70 71 72 77 85 90 94 98 102 104 103 102 103 106 111 116 120 123
56 58 60 61 63 64 66 67 68 69 70 71 73 74 75 76 77 78 82 85 88 90 91 90 89 86 84 82 81 81 80 78 75 72 70 70 71 74 81 87 91 96 101 104 106 105 105 106 109 114 119 122
57 59 61 63 64 65 66 67 67 68 70 71 72 74 75 76 76 78 81 84 87 89 91 90 88 86 83 80 79 79 79 78 76 74 71 70 70 72 77 83 87 93 99 103 106 108 108 109 110 113 117 122
59 61 62 63 64 65 66 66 67 68 70 71 73 75 76 76 76 78 80 83 86 88 90 90 88 86 82 79 78 78 78 77 76 74 73 70 69 70 74 80 84 89 96 102 106 110 111 111 113 114 117 122
60 61 62 63 64 65 66 67 68 69 70 72 74 75 76 76 77 78 80 82 84 87 89 90 88 86 82 78 76 77 77 76 76 75 73 71 69 69 71 76 81 86 92 100 105 110 113 114 116 117 118 121
61 62 63 64 65 66 67 68 69 70 71 73 74 76 76 76 77 78 79 81 83 85 88 89 89 86 82 79 76 75 75 75 75 75 73 71 69 68 70 74 79 83 89 97 103 109 114 116 118 120 121 122
63 64 65 66 67 68 69 70 70 71 72 74 75 76 77 77 77 77 78 80 81 83 86 87 88 87 83 79 76 75 74 73 73 73 73 71 69 67 68 71 76 82 86 93 100 106 112 117 120 122 123 124
66 67 68 69 69 70 71 72 73 74 74 75 76 77 77 78 78 77 78 79 80 82 84 86 87 87 84 80 76 74 73 72 72 72 71 70 68 67 67 69 74 80 84 89 96 102 109 116 121 124 126 127
68 70 71 71 72 73 74 75 76 76 76 77 78 78 78 78 78 78 78 78 80 81 83 85 86 86 84 80 76 73 71 71 70 70 70 69 68 66 67 67 71 78 82 85 91 98 105 113 121 126 128 129
71 72 73 74 75 76 77 78 79 79 78 79 79 79 79 79 79 78 78 79 79 81 82 84 84 85 83 80 75 72 70 69 69 69 68 68 66 66 66 66 69 75 79 81 87 94 100 109 118 125 129 132
74 75 77 78 79 80 81 81 82 82 81 81 80 79 79 79 79 79 79 79 80 80 81 82 83 83 82 79 75 71 68 67 67 67 67 66 65 65 65 65 66 71 76 78 83 90 96 103 112 121 127 132
76 78 80 82 83 84 85 85 85 85 84 84 83 81 80 80 79 80 80 80 80 80 81 81 81 81 80 77 73 70 67 66 66 66 66 65 64 63 64 65 64 68 73 76 80 86 92 98 106 114 123 130
79 81 83 85 86 87 88 89 89 88 88 86 85 84 82 81 81 80 80 80 80 80 81 80 79 79 78 75 72 68 65 64 64 64 64 64 62 62 63 64 63 65 69 73 78 82 88 94 101 108 117 126
83 85 86 88 89 90 91 92 92 91 91 89 87 86 85 84 83 82 81 81 81 80 80 80 78 77 76 73 70 67 64 62 62 62 63 62 61 60 61 63 62 63 66 70 75 79 84 90 96 104 112 120
88 89 90 92 93 94 94 95 94 94 93 92 90 89 87 86 84 83 82 81 81 81 80 79 77 75 74 71 67 65 63 61 60 60 62 62 60 59 59 61 61 61 63 67 72 76 81 86 92 100 107 115
Wind_Direction
282 281 280 280 279 278 277 276 275 275 274 274 273 273 273 272 272 272 271 271 271 270 269 268 268 267 266 265 264 262 260 256 252 248 245 242 241 241 242 241 239 238 239 238 236 237 238 238 238 238 237 236
282 281 281 280 279 278 277 276 275 274 273 273 273 272 272 272 271 271 271 271 271 270 269 268 267 266 266 265 264 263 262 260 258 253 248 244 241 241 240 240 239 237 237 237 235 236 237 237 237 237 237 237
283 282 281 280 279 278 277 276 275 274 274 273 272 272 271 271 271 272 272 271 271 271 270 269 267 266 265 265 264 263 263 261 260 258 254 248 243 240 239 239 239 238 236 235 234 234 236 237 236 236 236 237
283 282 281 280 279 278 277 276 275 275 274 273 272 272 271 271 272 272 272 271 271 271 270 269 268 267 266 265 265 264 263 262 261 259 257 254 248 241 239 237 237 238 236 234 233 232 234 236 236 235 235 235
283 283 282 280 279 278 277 276 276 275 274 273 272 272 272 271 271 271 271 271 271 270 270 270 269 269 268 266 265 265 263 263 262 260 258 256 252 246 240 237 236 236 235 234 233 232 232 234 235 234 234 234
283 282 281 280 279 278 277 276 275 275 274 273 272 272 272 272 272 272 272 271 271 271 270 270 270 269 269 268 267 265 264 263 262 261 260 257 255 250 244 239 236 235 234 234 233 232 231 232 233 233 233 233
283 283 281 280 280 279 278 277 276 275 274 273 273 273 273 273 273 273 273 272 272 272 271 271 271 271 270 269 268 266 265 263 262 261 260 258 255 253 248 241 237 235 233 232 233 232 231 231 232 232 231 232
285 284 283 282 282 281 280 279 278 276 276 275 275 275 274 274 274 273 273 273 272 272 272 272 272 272 272 271 269 267 265 263 261 259 258 258 255 253 251 244 238 235 233 231 231 232 231 230 230 231 230 230
286 285 285 285 284 283 282 281 279 278 277 277 276 276 275 275 274 274 273 273 272 272 272 272 272 272 272 272 271 269 266 262 259 258 256 256 255 253 251 248 241 235 233 231 230 230 231 230 229 230 229 228
288 287 287 286 285 283 281 280 279 278 278 278 277 277 277 276 276 275 274 274 273 272 272 272 272 272 272 272 271 270 267 263 259 256 255 254 254 253 251 249 245 238 233 231 230 229 230 230 229 229 229 228
290 289 287 285 283 282 281 281 280 280 280 280 280 280 280 279 279 278 277 276 275 275 274 274 273 273 273 272 271 270 268 264 260 255 254 252 252 252 251 250 247 242 235 231 230 229 229 229 229 228 228 227
290 288 286 285 284 283 284 284 284 284 284 284 284 284 283 283 282 281 280 279 278 278 277 276 275 274 274 274 273 272 270 266 261 256 253 252 251 251 250 249 248 245 239 232 229 229 228 228 228 228 228 227
289 287 286 286 286 286 286 287 288 288 288 288 288 287 287 286 285 284 283 282 281 280 279 278 277 277 276 276 275 274 272 268 262 256 253 252 251 250 249 248 248 246 242 236 231 229 228 228 227 227 227 227
289 289 289 289 289 290 290 291 291 291 291 291 290 290 289 288 288 287 286 285 283 282 281 280 279 279 278 278 278 276 274 271 264 258 254 251 251 250 248 247 246 246 244 240 234 229 228 228 227 227 226 226
293 293 292 293 293 294 294 294 294 293 293 292 292 291 290 290 289 289 288 287 285 284 283 282 281 281 280 280 279 278 276 273 267 260 255 252 251 250 248 246 245 245 245 242 237 232 228 227 227 227 226 226
297 296 296 296 296 296 296 296 295 295 294 293 293 292 291 291 291 290 290 289 287 286 285 284 283 283 282 282 281 279 277 274 269 262 257 253 251 250 248 246 244 243 244 243 240 235 230 227 227 227 226 225
299 298 298 298 298 298 297 297 296 295 294 294 293 293 293 292 292 292 291 290 289 288 287 286 285 285 284 284 282 281 278 275 271 265 259 255 252 252 249 246 243 242 242 242 241 237 233 229 226 226 226 225
300 299 300 300 300 299 298 297 296 295 295 295 295 295 294 294 294 294 293 292 291 289 288 288 287 287 286 285 283 281 279 276 272 267 261 257 254 253 250 246 242 241 240 240 240 239 235 231 227 225 225 225
302 302 301 301 300 299 298 297 297 297 297 297 297 297 296 296 295 295 294 293 292 291 290 290 289 289 288 286 284 282 279 277 273 269 264 259 256 254 252 247 242 240 239 238 239 238 236 233 230 226 223 224
303 303 302 301 301 300 300 300 300 300 300 300 299 299 298 297 296 296 295 294 293 293 292 292 291 291 289 288 285 283 280 277 274 271 266 261 258 256 253 249 243 239 238 237 236 237 236 234 232 229 224 223
304 304 303 303 303 303 304 304 304 303 303 302 301 300 299 298 297 297 296 296 295 295 295 294 293 293 291 290 287 284 281 278 275 272 268 264 259 256 254 250 245 240 237 236 234 234 235 234 232 230 227 223
306 306 306 307 307 307 307 307 306 306 305 304 302 301 300 299 299 298 298 298 298 297 297 296 295 294 293 292 289 286 282 279 276 273 270 266 261 257 254 251 247 242 238 236 234 232 233 233 232 231 229 226
310 310 310 310 309 309 309 309 308 307 306 305 304 303 302 301 300 300 300 300 300 299 298 297 296 296 295 293 291 287 283 279 276 273 270 267 263 259 255 252 249 245 240 237 234 231 230 231 231 230 229 228
312 312 312 311 311 311 311 310 310 309 308 306 305 304 303 303 302 302 301 301 301 300 299 298 297 296 296 294 292 288 285 280 277 273 271 268 264 260 256 252 250 247 243 239 235 232 229 229 229 229 229 228
313 313 312 312 312 312 312 311 311 310 309 308 307 306 305 304 304 303 303 303 302 301 300 299 298 297 296 295 292 289 285 281 277 274 271 268 265 261 257 253 250 248 244 240 237 233 229 227 228 228 228 227
314 314 313 313 313 313 313 312 311 311 310 309 308 307 307 306 305 305 305 304 304 303 301 300 299 297 296 295 293 290 286 282 278 274 271 268 265 261 257 253 250 248 245 240 237 234 230 228 227 227 227 226
315 315 314 314 314 314 313 313 312 312 311 310 309 308 307 307 307 306 306 305 305 304 302 301 300 298 296 295 293 290 286 283 279 275 271 268 265 261 258 254 250 247 245 240 236 234 232 229 227 226 226 226
315 315 315 315 315 315 314 314 313 312 312 311 310 309 308 308 308 308 307 307 306 304 303 301 300 298 296 294 293 290 287 283 279 276 272 269 265 261 258 255 250 246 244 241 237 234 232 230 228 227 226 226
315 314 315 315 315 315 314 314 313 313 312 312 311 310 310 309 309 308 308 308 307 305 303 302 300 298 296 294 292 290 287 283 280 276 273 269 265 262 258 255 250 245 243 241 238 235 233 231 229 227 226 226
315 315 315 315 314 314 314 314 313 313 312 312 312 311 310 310 309 309 309 308 307 306 304 303 301 299 296 294 292 290 287 284 280 277 273 270 266 262 258 256 251 245 242 241 239 236 233 231 229 227 226 226
315 315 315 314 314 314 314 313 313 313 312 312 312 311 311 310 310 309 309 308 308 306 305 304 302 299 296 294 291 289 287 284 281 278 274 271 267 262 258 255 251 246 242 240 239 237 235 232 229 227 226 226
Height
10637 10635 10633 10631 10629 10627 10626 10624 10622 10620 10618 10617 10615 10613 10611 10609 10607 10606 10606 10606 10606 10607 10607 10607 10608 10608 10609 10611 10615 10618 10621 10624 10628 10632 10637 10642 10646 10651 10658 10664 10668 10670 10672 10677 10683 10684 10685 10688 10692 10697 10702 10707
10627 10625 10623 10621 10619 10617 10615 10614 10612 10611 10609 10608 10606 10604 10602 10599 10597 10596 10595 10595 10595 10595 10595 10595 10595 10595 10596 10597 10600 10604 10606 10607 10611 10614 10619 10626 10631 10636 10643 10649 10650 10653 10657 10663 10668 10671 10671 10674 10679 10684 10689 10695
10616 10615 10613 10611 10609 10607 10605 10603 10602 10601 10599 10598 10596 10594 10591 10589 10587 10586 10584 10584 10583 10582 10581 10581 10581 10581 10582 10584 10586 10590 10592 10591 10595 10599 10602 10607 10613 10620 10627 10632 10633 10636 10642 10647 10652 10657 10658 10660 10665 10670 10676 10681
10606 10604 10602 10600 10598 10596 10595 10593 10592 10590 10589 10587 10585 10583 10581 10579 10577 10576 10574 10573 10571 10570 10568 10567 10566 10566 10568 10571 10572 10575 10578 10577 10579 10583 10586 10588 10594 10603 10610 10614 10617 10619 10624 10630 10635 10641 10645 10646 10650 10655 10661 10667
10596 10594 10592 10590 10588 10586 10584 10583 10581 10580 10578 10576 10574 10572 10571 10569 10567 10566 10564 10562 10560 10558 10556 10554 10552 10552 10553 10556 10558 10561 10563 10563 10564 10566 10569 10572 10576 10584 10591 10596 10600 10602 10607 10612 10617 10624 10629 10632 10635 10640 10647 10654
10587 10585 10582 10580 10578 10576 10575 10573 10571 10569 10568 10565 10563 10562 10560 10559 10557 10555 10553 10551 10549 10547 10545 10542 10540 10539 10539 10541 10544 10547 10548 10549 10550 10550 10551 10555 10559 10564 10571 10578 10582 10586 10590 10595 10599 10606 10612 10616 10619 10625 10633 10640
10577 10575 10573 10571 10569 10567 10565 10563 10562 10560 10557 10555 10553 10552 10550 10548 10547 10545 10543 10540 10538 10536 10533 10531 10528 10526 10525 10526 10529 10532 10534 10535 10536 10536 10535 10538 10542 10545 10550 10558 10564 10568 10573 10578 10582 10587 10594 10599 10602 10609 10617 10625
10568 10566 10564 10562 10560 10558 10557 10555 10553 10550 10548 10546 10545 10543 10540 10538 10537 10534 10532 10530 10528 10525 10522 10520 10516 10514 10513 10512 10513 10516 10520 10521 10521 10521 10520 10521 10525 10529 10531 10537 10545 10551 10555 10560 10565 10569 10575 10581 10585 10592 10601 10610
10561 10558 10556 10554 10553 10551 10549 10547 10545 10542 10540 10539 10537 10534 10531 10529 10527 10524 10522 10520 10517 10514 10511 10508 10505 10503 10501 10499 10498 10501 10504 10506 10506 10506 10505 10505 10507 10511 10514 10517 10525 10533 10538 10543 10548 10552 10557 10564 10569 10574 10583 10593
10553 10551 10549 10547 10546 10544 10542 10540 10538 10535 10533 10531 10528 10525 10522 10519 10516 10513 10511 10508 10505 10503 10500 10497 10494 10492 10490 10488 10486 10486 10488 10491 10492 10491 10491 10491 10491 10494 10497 10500 10505 10513 10520 10526 10530 10535 10540 10546 10552 10557 10565 10575
10547 10545 10543 10541 10539 10537 10535 10533 10530 10528 10525 10522 10519 10515 10512 10509 10505 10502 10499 10495 10493 10490 10488 10485 10482 10480 10478 10475 10474 10473 10474 10475 10476 10477 10476 10475 10476 10477 10480 10483 10487 10493 10502 10509 10513 10519 10524 10529 10536 10541 10548 10557
10541 10538 10536 10535 10532 10530 10528 10525 10522 10519 10516 10512 10509 10505 10501 10498 10494 10490 10487 10483 10480 10477 10474 10472 10470 10467 10465 10463 10461 10460 10459 10460 10461 10463 10462 10460 10461 10461 10464 10467 10470 10474 10482 10491 10497 10502 10507 10513 10519 10525 10531 10539
10534 10532 10530 10528 10526 10523 10520 10517 10514 10510 10506 10503 10499 10494 10490 10486 10482 10478 10474 10471 10467 10464 10461 10458 10456 10454 10452 10449 10447 10446 10445 10445 10446 10447 10448 10446 10445 10445 10447 10451 10455 10457 10463 10472 10480 10486 10491 10497 10503 10509 10514 10523
10528 10526 10524 10521 10519 10516 10512 10509 10505 10501 10497 10493 10488 10484 10479 10475 10471 10467 10462 10458 10454 10450 10447 10444 10442 10439 10437 10435 10433 10431 10429 10429 10430 10432 10433 10432 10430 10429 10431 10435 10439 10442 10445 10453 10462 10470 10476 10481 10487 10493 10499 10506
10522 10520 10517 10514 10511 10507 10504 10500 10496 10492 10487 10483 10478 10473 10469 10464 10460 10455 10450 10446 10442 10437 10433 10429 10427 10425 10423 10421 10418 10416 10414 10414 10415 10416 10418 10418 10416 10414 10415 10419 10423 10426 10429 10435 10444 10453 10460 10465 10471 10477 10483 10490
10515 10512 10509 10506 10502 10499 10495 10491 10487 10482 10478 10473 10468 10463 10458 10454 10449 10444 10438 10433 10428 10424 10419 10416 10413 10410 10408 10406 10404 10401 10399 10398 10399 10401 10402 10403 10402 10399 10399 10403 10407 10411 10414 10418 10425 10435 10443 10450 10455 10460 10468 10475
10508 10504 10501 10498 10494 10490 10486 10482 10477 10473 10468 10463 10457 10452 10447 10442 10437 10432 10426 10419 10415 10410 10406 10402 10399 10396 10394 10391 10388 10385 10383 10382 10383 10384 10386 10388 10388 10385 10384 10387 10391 10395 10399 10402 10407 10416 10424 10432 10440 10445 10451 10459
10500 10496 10493 10489 10485 10481 10477 10472 10467 10462 10457 10452 10446 10440 10435 10430 10426 10420 10413 10407 10401 10396 10392 10389 10386 10382 10380 10377 10374 10370 10368 10367 10367 10368 10370 10372 10373 10370 10368 10371 10376 10380 10384 10387 10390 10397 10405 10413 10421 10429 10435 10442
10492 10488 10485 10481 10477 10472 10467 10462 10457 10452 10447 10441 10435 10429 10424 10419 10414 10408 10401 10395 10389 10383 10379 10375 10372 10369 10366 10363 10359 10355 10353 10351 10351 10351 10353 10356 10357 10356 10354 10355 10361 10365 10368 10372 10375 10378 10386 10393 10401 10411 10419 10425
10484 10480 10476 10472 10467 10462 10457 10452 10447 10442 10436 10431 10424 10418 10412 10407 10403 10397 10390 10383 10377 10371 10365 10361 10358 10355 10351 10348 10344 10340 10337 10335 10335 10335 10336 10339 10342 10341 10339 10339 10344 10350 10352 10355 10359 10361 10366 10374 10381 10391 10401 10408
10476 10472 10467 10462 10457 10452 10447 10442 10437 10432 10426 10420 10414 10408 10402 10397 10391 10385 10378 10372 10365 10358 10352 10347 10343 10340 10337 10333 10330 10326 10323 10320 10319 10319 10319 10322 10326 10326 10325 10324 10327 10333 10336 10337 10342 10345 10349 10356 10363 10371 10381 10391
10468 10462 10458 10452 10447 10442 10437 10432 10427 10422 10417 10410 10404 10397 10391 10386 10380 10373 10367 10360 10354 10347 10340 10334 10329 10325 10322 10319 10315 10311 10308 10306 10304 10303 10303 10305 10309 10311 10310 10309 10310 10315 10319 10320 10324 10330 10334 10339 10346 10353 10361 10373
10459 10453 10447 10442 10437 10432 10427 10422 10417 10412 10406 10401 10394 10387 10380 10374 10368 10362 10355 10348 10342 10335 10328 10321 10316 10311 10308 10305 10301 10297 10294 10291 10289 10288 10288 10289 10292 10295 10295 10294 10294 10296 10301 10303 10307 10313 10318 10323 10329 10336 10344 10354
10449 10444 10438 10433 10427 10422 10417 10411 10406 10401 10395 10390 10383 10376 10370 10363 10357 10351 10344 10337 10330 10324 10316 10309 10303 10298 10294 10291 10287 10283 10280 10277 10275 10273 10272 10273 10275 10278 10280 10280 10278 10279 10283 10286 10290 10296 10302 10307 10313 10320 10328 10337
10440 10434 10429 10423 10418 10412 10406 10401 10395 10390 10384 10378 10371 10365 10359 10351 10344 10338 10331 10324 10318 10312 10305 10297 10291 10286 10281 10278 10274 10270 10266 10263 10261 10259 10258 10258 10260 10262 10264 10265 10263 10262 10265 10270 10273 10279 10285 10291 10297 10303 10311 10319
10431 10425 10419 10413 10408 10402 10395 10389 10384 10378 10373 10367 10360 10354 10347 10340 10332 10326 10319 10312 10306 10299 10293 10285 10278 10273 10268 10264 10261 10257 10253 10250 10247 10245 10244 10244 10245 10246 10248 10250 10249 10247 10249 10254 10257 10261 10268 10275 10281 10287 10294 10302
10422 10415 10408 10402 10397 10391 10384 10378 10371 10365 10360 10355 10348 10342 10336 10329 10321 10314 10307 10300 10294 10287 10281 10274 10266 10260 10255 10251 10247 10244 10241 10237 10234 10232 10231 10230 10230 10231 10233 10235 10235 10233 10234 10238 10242 10245 10251 10259 10265 10271 10277 10284
10412 10406 10399 10392 10386 10379 10373 10366 10360 10354 10348 10342 10335 10330 10324 10317 10310 10303 10295 10288 10282 10275 10269 10262 10255 10248 10243 10239 10235 10231 10228 10225 10222 10219 10218 10217 10217 10217 10218 10219 10222 10221 10221 10223 10227 10231 10236 10243 10249 10255 10261 10266
10403 10396 10389 10383 10375 10368 10361 10354 10347 10342 10336 10329 10323 10317 10311 10305 10298 10291 10284 10277 10269 10263 10256 10250 10244 10237 10231 10227 10223 10219 10215 10212 10209 10207 10205 10204 10204 10204 10203 10204 10207 10208 10208 10209 10212 10217 10222 10227 10233 10239 10244 10251
10392 10385 10378 10372 10364 10357 10350 10343 10335 10329 10323 10317 10311 10304 10298 10292 10286 10279 10273 10265 10258 10251 10244 10238 10232 10225 10220 10215 10211 10207 10203 10200 10197 10194 10192 10191 10191 10191 10191 10191 10192 10195 10197 10197 10199 10203 10208 10213 10219 10224 10229 10236
10380 10374 10367 10360 10352 10345 10338 10331 10324 10317 10310 10304 10298 10292 10286 10280 10274 10268 10261 10254 10247 10239 10233 10226 10220 10214 10208 10204 10200 10196 10192 10189 10186 10183 10180 10179 10179 10179 10179 10178 10179 10181 10184 10186 10187 10189 10194 10199 10205 10211 10215 10221